Time,TemperatureF,DewpointF,PressureIn,WindDirection,WindDirectionDegrees,WindSpeedMPH,WindSpeedGustMPH,Humidity,HourlyPrecipIn,Conditions,Clouds,dailyrainin,SolarRadiationWatts/m^2,SoftwareType,DateUTC
2013-06-07 00:12:00,32.0,29.0,-100.00,SSE,156,0.0,2.0,87,0.00,,,0.00,0.000000,,2013-06-07 06:12:00,
2013-06-07 00:22:00,32.0,29.0,-100.00,SSE,156,0.0,2.0,87,0.00,,,0.00,0.000000,,2013-06-07 06:22:00,
2013-06-07 00:42:00,32.0,29.0,-100.00,SSE,156,0.0,2.0,87,0.00,,,0.00,0.000000,,2013-06-07 06:42:00,
2013-06-07 00:52:00,30.0,27.0,-100.00,ESE,103,0.0,0.0,89,0.00,,,0.00,0.000000,,2013-06-07 06:52:00,
2013-06-07 01:12:00,30.0,27.0,-100.00,ESE,103,0.0,0.0,89,0.00,,,0.00,0.000000,,2013-06-07 07:12:00,
2013-06-07 01:22:00,30.0,27.0,-100.00,ESE,103,0.0,0.0,89,0.00,,,0.00,0.000000,,2013-06-07 07:22:00,
2013-06-07 01:42:00,30.0,27.0,-100.00,ESE,103,0.0,0.0,89,0.00,,,0.00,0.000000,,2013-06-07 07:42:00,
2013-06-07 01:52:00,30.0,28.0,-100.00,West,273,0.0,2.0,91,0.00,,,0.00,0.000000,,2013-06-07 07:52:00,
2013-06-07 02:12:00,30.0,28.0,-100.00,West,273,0.0,2.0,91,0.00,,,0.00,0.000000,,2013-06-07 08:12:00,
2013-06-07 02:22:00,30.0,28.0,-100.00,West,273,0.0,2.0,91,0.00,,,0.00,0.000000,,2013-06-07 08:22:00,
2013-06-07 02:42:00,30.0,28.0,-100.00,West,273,0.0,2.0,91,0.00,,,0.00,0.000000,,2013-06-07 08:42:00,
2013-06-07 02:52:00,29.0,27.0,-100.00,WNW,287,0.0,0.0,91,0.00,,,0.00,0.000000,,2013-06-07 08:52:00,
2013-06-07 03:12:00,29.0,27.0,-100.00,WNW,287,0.0,0.0,91,0.00,,,0.00,0.000000,,2013-06-07 09:12:00,
2013-06-07 03:22:00,29.0,27.0,-100.00,WNW,287,0.0,0.0,91,0.00,,,0.00,0.000000,,2013-06-07 09:22:00,
2013-06-07 03:43:00,29.0,27.0,-100.00,WNW,287,0.0,0.0,91,0.00,,,0.00,0.000000,,2013-06-07 09:43:00,
2013-06-07 03:52:00,34.0,32.0,-100.00,North,356,2.0,6.0,91,0.00,,,0.00,0.000000,,2013-06-07 09:52:00,
2013-06-07 04:12:00,34.0,32.0,-100.00,North,356,2.0,6.0,91,0.00,,,0.00,0.000000,,2013-06-07 10:12:00,
2013-06-07 04:23:00,34.0,32.0,-100.00,North,356,2.0,6.0,91,0.00,,,0.00,0.000000,,2013-06-07 10:23:00,
2013-06-07 04:33:00,34.0,32.0,-100.00,North,356,2.0,6.0,91,0.00,,,0.00,0.000000,,2013-06-07 10:33:00,
2013-06-07 04:42:00,34.0,32.0,-100.00,North,356,2.0,6.0,91,0.00,,,0.00,0.000000,,2013-06-07 10:42:00,
2013-06-07 04:52:00,32.0,30.0,-100.00,ESE,104,1.0,3.0,91,0.00,,,0.00,0.000000,,2013-06-07 10:52:00,
2013-06-07 05:12:00,32.0,30.0,-100.00,ESE,104,1.0,3.0,91,0.00,,,0.00,0.000000,,2013-06-07 11:12:00,
2013-06-07 05:22:00,32.0,30.0,-100.00,ESE,104,1.0,3.0,91,0.00,,,0.00,0.000000,,2013-06-07 11:22:00,
2013-06-07 05:32:00,32.0,30.0,-100.00,ESE,104,1.0,3.0,91,0.00,,,0.00,0.000000,,2013-06-07 11:32:00,
2013-06-07 05:42:00,32.0,30.0,-100.00,ESE,104,1.0,3.0,91,0.00,,,0.00,0.000000,,2013-06-07 11:42:00,
2013-06-07 05:52:00,32.0,30.0,-100.00,NNW,341,1.0,3.0,93,0.00,,,0.00,4.000000,,2013-06-07 11:52:00,
2013-06-07 06:12:00,32.0,30.0,-100.00,NNW,341,1.0,3.0,93,0.00,,,0.00,4.000000,,2013-06-07 12:12:00,
2013-06-07 06:22:00,32.0,30.0,-100.00,NNW,341,1.0,3.0,93,0.00,,,0.00,4.000000,,2013-06-07 12:22:00,
2013-06-07 06:32:00,32.0,30.0,-100.00,NNW,341,1.0,3.0,93,0.00,,,0.00,4.000000,,2013-06-07 12:32:00,
2013-06-07 06:42:00,32.0,30.0,-100.00,NNW,341,1.0,3.0,93,0.00,,,0.00,4.000000,,2013-06-07 12:42:00,
2013-06-07 07:52:00,52.0,35.0,-100.00,NW,316,0.0,3.0,53,-99.99,,,0.00,320.000000,,2013-06-07 13:52:00,
2013-06-07 08:12:00,52.0,35.0,-100.00,NW,316,0.0,3.0,53,-99.99,,,0.00,320.000000,,2013-06-07 14:12:00,
2013-06-07 08:23:00,52.0,35.0,-100.00,NW,316,0.0,3.0,53,-99.99,,,0.00,320.000000,,2013-06-07 14:23:00,
2013-06-07 08:42:00,52.0,35.0,-100.00,NW,316,0.0,3.0,53,-99.99,,,0.00,320.000000,,2013-06-07 14:42:00,
2013-06-07 08:52:00,57.0,34.0,-100.00,SW,233,7.0,12.0,42,0.00,,,0.00,539.000000,,2013-06-07 14:52:00,
2013-06-07 09:12:00,57.0,34.0,-100.00,SW,233,7.0,12.0,42,0.00,,,0.00,539.000000,,2013-06-07 15:12:00,
2013-06-07 09:23:00,57.0,34.0,-100.00,SW,233,7.0,12.0,42,0.00,,,0.00,539.000000,,2013-06-07 15:23:00,
2013-06-07 09:33:00,57.0,34.0,-100.00,SW,233,7.0,12.0,42,0.00,,,0.00,539.000000,,2013-06-07 15:33:00,
2013-06-07 09:43:00,57.0,34.0,-100.00,SW,233,7.0,12.0,42,0.00,,,0.00,539.000000,,2013-06-07 15:43:00,
2013-06-07 09:52:00,60.0,32.0,-100.00,WSW,258,9.0,17.0,34,0.00,,,0.00,752.000000,,2013-06-07 15:52:00,
2013-06-07 10:13:00,60.0,32.0,-100.00,WSW,258,9.0,17.0,34,0.00,,,0.00,752.000000,,2013-06-07 16:13:00,
2013-06-07 10:22:00,60.0,32.0,-100.00,WSW,258,9.0,17.0,34,0.00,,,0.00,752.000000,,2013-06-07 16:22:00,
2013-06-07 10:33:00,60.0,32.0,-100.00,WSW,258,9.0,17.0,34,0.00,,,0.00,752.000000,,2013-06-07 16:33:00,
2013-06-07 10:43:00,60.0,32.0,-100.00,WSW,258,9.0,17.0,34,0.00,,,0.00,752.000000,,2013-06-07 16:43:00,
2013-06-07 10:52:00,63.0,33.0,-100.00,WSW,255,9.0,17.0,32,0.00,,,0.00,954.000000,,2013-06-07 16:52:00,
2013-06-07 11:13:00,63.0,33.0,-100.00,WSW,255,9.0,17.0,32,0.00,,,0.00,954.000000,,2013-06-07 17:13:00,
2013-06-07 11:23:00,63.0,33.0,-100.00,WSW,255,9.0,17.0,32,0.00,,,0.00,954.000000,,2013-06-07 17:23:00,
2013-06-07 11:32:00,63.0,33.0,-100.00,WSW,255,9.0,17.0,32,0.00,,,0.00,954.000000,,2013-06-07 17:32:00,
2013-06-07 11:42:00,63.0,33.0,-100.00,WSW,255,9.0,17.0,32,0.00,,,0.00,954.000000,,2013-06-07 17:42:00,
2013-06-07 12:19:00,61.0,29.0,-100.00,WNW,287,11.0,19.0,30,0.00,,,-99.99,637.000000,,2013-06-07 18:19:00,
2013-06-07 12:25:00,61.0,29.0,-100.00,WNW,287,11.0,19.0,30,0.00,,,-99.99,637.000000,,2013-06-07 18:25:00,
2013-06-07 12:44:00,61.0,29.0,-100.00,WNW,287,11.0,19.0,30,0.00,,,-99.99,637.000000,,2013-06-07 18:44:00,
2013-06-07 12:52:00,61.0,30.0,-100.00,West,267,5.0,17.0,31,0.00,,,0.00,573.000000,,2013-06-07 18:52:00,
2013-06-07 13:15:00,61.0,30.0,-100.00,West,267,5.0,17.0,31,0.00,,,0.00,573.000000,,2013-06-07 19:15:00,
2013-06-07 13:28:00,61.0,30.0,-100.00,West,267,5.0,17.0,31,0.00,,,0.00,573.000000,,2013-06-07 19:28:00,
2013-06-07 13:36:00,61.0,30.0,-100.00,West,267,5.0,17.0,31,0.00,,,0.00,573.000000,,2013-06-07 19:36:00,
2013-06-07 13:47:00,61.0,30.0,-100.00,West,267,5.0,17.0,31,0.00,,,0.00,573.000000,,2013-06-07 19:47:00,
2013-06-07 13:52:00,62.0,32.0,-100.00,NNW,329,9.0,23.0,32,0.00,,,0.00,496.000000,,2013-06-07 19:52:00,
2013-06-07 14:16:00,62.0,32.0,-100.00,NNW,329,9.0,23.0,32,0.00,,,0.00,496.000000,,2013-06-07 20:16:00,
2013-06-07 14:25:00,62.0,32.0,-100.00,NNW,329,9.0,23.0,32,0.00,,,0.00,496.000000,,2013-06-07 20:25:00,
2013-06-07 14:38:00,62.0,32.0,-100.00,NNW,329,9.0,23.0,32,0.00,,,0.00,496.000000,,2013-06-07 20:38:00,
2013-06-07 14:46:00,62.0,32.0,-100.00,NNW,329,9.0,23.0,32,0.00,,,0.00,496.000000,,2013-06-07 20:46:00,
2013-06-07 14:52:00,62.0,30.0,-100.00,NW,309,11.0,19.0,30,0.00,,,0.00,668.000000,,2013-06-07 20:52:00,
2013-06-07 15:18:00,62.0,30.0,-100.00,NW,309,11.0,19.0,30,0.00,,,0.00,668.000000,,2013-06-07 21:18:00,
2013-06-07 15:38:00,62.0,30.0,-100.00,NW,309,11.0,19.0,30,0.00,,,0.00,668.000000,,2013-06-07 21:38:00,
2013-06-07 15:45:00,62.0,30.0,-100.00,NW,309,11.0,19.0,30,0.00,,,0.00,668.000000,,2013-06-07 21:45:00,
2013-06-07 16:21:00,67.0,29.0,-100.00,WNW,292,13.0,25.0,24,0.00,,,0.00,760.000000,,2013-06-07 22:21:00,
2013-06-07 16:28:00,67.0,29.0,-100.00,WNW,292,13.0,25.0,24,0.00,,,0.00,760.000000,,2013-06-07 22:28:00,
2013-06-07 16:46:00,67.0,29.0,-100.00,WNW,292,13.0,25.0,24,0.00,,,0.00,760.000000,,2013-06-07 22:46:00,
2013-06-07 16:52:00,66.0,27.0,-100.00,WNW,284,16.0,26.0,23,0.00,,,0.00,721.000000,,2013-06-07 22:52:00,
2013-06-07 17:18:00,66.0,27.0,-100.00,WNW,284,16.0,26.0,23,0.00,,,0.00,721.000000,,2013-06-07 23:18:00,
2013-06-07 17:29:00,66.0,27.0,-100.00,WNW,284,16.0,26.0,23,0.00,,,0.00,721.000000,,2013-06-07 23:29:00,
2013-06-07 17:37:00,66.0,27.0,-100.00,WNW,284,16.0,26.0,23,0.00,,,0.00,721.000000,,2013-06-07 23:37:00,
2013-06-07 17:49:00,66.0,27.0,-100.00,WNW,284,16.0,26.0,23,0.00,,,0.00,721.000000,,2013-06-07 23:49:00,
2013-06-07 18:17:00,64.0,26.0,-100.00,West,277,12.0,27.0,24,0.00,,,0.00,607.000000,,2013-06-08 00:17:00,
2013-06-07 18:34:00,64.0,26.0,-100.00,West,277,12.0,27.0,24,0.00,,,0.00,607.000000,,2013-06-08 00:34:00,
2013-06-07 18:45:00,64.0,26.0,-100.00,West,277,12.0,27.0,24,0.00,,,0.00,607.000000,,2013-06-08 00:45:00,
2013-06-07 18:52:00,63.0,29.0,-100.00,West,277,10.0,28.0,27,0.00,,,0.00,245.000000,,2013-06-08 00:52:00,
2013-06-07 19:28:00,63.0,29.0,-100.00,West,277,10.0,28.0,27,0.00,,,0.00,245.000000,,2013-06-08 01:28:00,
2013-06-07 19:38:00,63.0,29.0,-100.00,West,277,10.0,28.0,27,0.00,,,0.00,245.000000,,2013-06-08 01:38:00,
2013-06-07 19:44:00,63.0,29.0,-100.00,West,277,10.0,28.0,27,0.00,,,0.00,245.000000,,2013-06-08 01:44:00,
2013-06-07 19:52:00,61.0,26.0,-100.00,West,276,15.0,24.0,26,0.00,,,0.00,111.000000,,2013-06-08 01:52:00,
2013-06-07 20:15:00,61.0,26.0,-100.00,West,276,15.0,24.0,26,0.00,,,0.00,111.000000,,2013-06-08 02:15:00,
2013-06-07 20:29:00,61.0,26.0,-100.00,West,276,15.0,24.0,26,0.00,,,0.00,111.000000,,2013-06-08 02:29:00,
2013-06-07 20:34:00,61.0,26.0,-100.00,West,276,15.0,24.0,26,0.00,,,0.00,111.000000,,2013-06-08 02:34:00,
2013-06-07 20:47:00,61.0,26.0,-100.00,West,276,15.0,24.0,26,0.00,,,0.00,111.000000,,2013-06-08 02:47:00,
2013-06-07 21:16:00,57.0,28.0,-100.00,West,268,6.0,17.0,33,0.00,,,0.00,13.000000,,2013-06-08 03:16:00,
2013-06-07 21:27:00,57.0,28.0,-100.00,West,268,6.0,17.0,33,0.00,,,0.00,13.000000,,2013-06-08 03:27:00,
2013-06-07 21:36:00,57.0,28.0,-100.00,West,268,6.0,17.0,33,0.00,,,0.00,13.000000,,2013-06-08 03:36:00,
2013-06-07 21:50:00,57.0,28.0,-100.00,West,268,6.0,17.0,33,0.00,,,0.00,13.000000,,2013-06-08 03:50:00,
2013-06-07 21:52:00,56.0,29.0,-100.00,WSW,241,5.0,10.0,36,0.00,,,0.00,0.000000,,2013-06-08 03:52:00,
2013-06-07 22:13:00,56.0,29.0,-100.00,WSW,241,5.0,10.0,36,0.00,,,0.00,0.000000,,2013-06-08 04:13:00,
2013-06-07 22:23:00,56.0,29.0,-100.00,WSW,241,5.0,10.0,36,0.00,,,0.00,0.000000,,2013-06-08 04:23:00,
2013-06-07 22:33:00,56.0,29.0,-100.00,WSW,241,5.0,10.0,36,0.00,,,0.00,0.000000,,2013-06-08 04:33:00,
2013-06-07 22:42:00,56.0,29.0,-100.00,WSW,241,5.0,10.0,36,0.00,,,0.00,0.000000,,2013-06-08 04:42:00,
2013-06-07 22:52:00,55.0,29.0,-100.00,West,259,9.0,15.0,37,0.00,,,0.00,0.000000,,2013-06-08 04:52:00,
2013-06-07 23:12:00,55.0,29.0,-100.00,West,259,9.0,15.0,37,0.00,,,0.00,0.000000,,2013-06-08 05:12:00,
2013-06-07 23:22:00,55.0,29.0,-100.00,West,259,9.0,15.0,37,0.00,,,0.00,0.000000,,2013-06-08 05:22:00,
2013-06-07 23:32:00,55.0,29.0,-100.00,West,259,9.0,15.0,37,0.00,,,0.00,0.000000,,2013-06-08 05:32:00,
2013-06-07 23:42:00,55.0,29.0,-100.00,West,259,9.0,15.0,37,0.00,,,0.00,0.000000,,2013-06-08 05:42:00,
2013-06-07 23:52:00,55.0,31.0,-100.00,West,272,12.0,18.0,39,0.00,,,-99.99,0.000000,,2013-06-08 05:52:00,